Location: Centerville
(32.8776°N, 96.6203°W)
Time: 00:36:07
(UTC+00:00)

Cosmos 2297 Rocket - Pass Details

Date: 17 June 2021
Orbit: 838 x 844 km, 71.0° (Epoch: 01 August)

Event Time Altitude Azimuth Distance (km) Brightness Sun altitude
Rises 01:57:53 0° 330° (NNW) 3,405 6.6 -4.6°
Reaches altitude 10° 02:00:27 10° 323° (NW) 2,467 6.0 -5.1°
Maximum altitude 02:05:41 40° 256° (WSW) 1,224 3.5 -6.0°
Drops below altitude 10° 02:10:54 10° 188° (S) 2,452 4.4 -6.9°
Sets 02:13:28 0° 181° (S) 3,382 5.0 -7.4°
